Weather reports worldwide

Advertisment
Quimper, France (7201): temperature & dewpoint: 09.12.2018 07:00:00 - 15.12.2018 07:00:00 (CET)Quimper, France (7201): temperature 5cm: 09.12.2018 07:00:00 - 15.12.2018 07:00:00 (CET)Quimper, France (7201): temperature -20cm: 09.12.2018 07:00:00 - 15.12.2018 07:00:00 (CET)Quimper, France (7201): wind speed & gusts: 09.12.2018 07:00:00 - 15.12.2018 07:00:00 (CET)Quimper, France (7201): wind direction: 09.12.2018 07:00:00 - 15.12.2018 07:00:00 (CET)Quimper, France (7201): reduced air pressure: 09.12.2018 07:00:00 - 15.12.2018 07:00:00 (CET)Quimper, France (7201): visibility: 09.12.2018 07:00:00 - 15.12.2018 07:00:00 (CET)Quimper, France (7201): sunshine duration: 09.12.2018 07:00:00 - 15.12.2018 07:00:00 (CET)Quimper, France (7201): precipitation: 09.12.2018 07:00:00 - 15.12.2018 07:00:00 (CET)
Date & Time tt [°C] td [°C] tt 5cm [°C] tt -20cm [°C] ff [km/h] ff [kn] fx [km/h] fx [kn] dd ppp [hPa] vv [km] sd [min] rr [mm]
15.12.2018 07:00:00 - - - - - - - - - - - - -
15.12.2018 06:00:00 10,9 10,7 10,8 8,2 13 7 39 21 SE 1012,0 1,7 0 5,7
15.12.2018 05:00:00 11,1 10,9 10,6 8,2 21 11 39 21 SSE 1012,8 1,8 0 2,4
15.12.2018 04:00:00 10,8 10,6 10,3 8,2 23 12 42 23 SSE 1014,1 3,0 0 4,2
15.12.2018 03:00:00 10,3 10,1 6,8 8,2 24 13 42 23 SSE 1014,7 4,6 0 3,1
15.12.2018 02:00:00 6,9 6,8 6,2 8,2 10 6 32 17 ESE 1015,7 0,4 0 2,4
15.12.2018 01:00:00 6,3 6,0 6,0 8,3 16 9 32 17 SE 1016,7 1,2 0 1,4
15.12.2018 00:00:00 6,4 6,1 5,6 8,3 19 10 33 18 SE 1017,8 1,2 0 1,4
14.12.2018 23:00:00 5,7 5,3 5,1 8,3 14 8 28 15 ESE 1018,3 1,1 0 0,4
14.12.2018 22:00:00 5,5 4,6 4,7 8,3 13 7 28 15 SE 1019,3 1,6 0 0,0
14.12.2018 21:00:00 5,0 4,0 4,1 8,3 12 6 22 12 SE 1019,8 7 0 0,0
14.12.2018 20:00:00 4,4 3,4 3,4 8,4 9 5 19 10 E 1020,6 6 0 0,0
14.12.2018 19:00:00 3,6 2,6 3,1 8,4 10 5 19 11 ESE 1020,5 5 0 0,0
14.12.2018 18:00:00 3,5 2,5 3,0 8,4 10 6 18 10 ESE 1020,9 6 0 0,0
14.12.2018 17:00:00 3,4 2,4 3,0 8,4 9 5 19 10 ESE 1020,8 6 0 0,0
14.12.2018 16:00:00 3,4 2,7 3,0 8,4 9 5 21 12 ESE 1020,5 5 0 0,0
14.12.2018 15:00:00 2,9 2,3 2,7 8,4 11 6 20 11 ESE 1020,3 3,9 0 0,0
14.12.2018 14:00:00 2,7 2,1 2,6 8,5 6 3 16 9 ESE 1021,1 3,5 0 0,0
14.12.2018 13:00:00 2,4 2,0 1,8 8,5 8 4 18 10 ESE 1021,0 3,5 0 0,0
14.12.2018 12:00:00 1,8 1,2 1,6 8,5 5 3 17 9 ESE 1021,3 2,5 0 0,0
14.12.2018 11:00:00 1,7 1,0 1,3 8,6 8 4 16 9 ESE 1021,0 2,1 0 0,2
14.12.2018 10:00:00 1,6 0,7 1,3 8,6 5 3 18 10 ESE 1020,6 6 0 0,0
14.12.2018 09:00:00 1,6 0,9 1,3 8,6 9 5 19 10 ESE 1019,3 4,6 0 0,0
14.12.2018 08:00:00 1,7 0,7 1,4 8,7 8 4 20 11 ESE 1019,0 3,3 0 0,0
14.12.2018 07:00:00 1,9 0,7 1,6 8,7 8 4 16 9 ESE 1018,7 7 0 0,0
14.12.2018 06:00:00 2,3 0,8 1,8 8,8 8 4 14 8 ESE 1018,0 6 0 0,0
14.12.2018 05:00:00 2,5 1,0 2,0 8,8 3 2 16 9 ESE 1017,4 9 0 0,0
14.12.2018 04:00:00 2,4 1,2 2,1 8,8 9 5 16 9 E 1017,0 8 0 0,0
14.12.2018 03:00:00 2,4 1,5 1,9 8,9 6 3 16 8 E 1017,0 8 0 0,0
14.12.2018 02:00:00 2,2 1,6 1,9 8,9 6 4 17 9 E 1016,5 6 0 0,0
14.12.2018 01:00:00 2,1 1,7 1,8 9,0 10 5 19 10 ESE 1016,2 4,7 0 0,0
14.12.2018 00:00:00 2,2 1,8 2,0 9,0 8 4 21 11 ESE 1015,8 4,1 0 0,4
13.12.2018 23:00:00 2,3 1,9 2,1 9,0 10 5 18 10 ESE 1015,3 2,1 0 0,0
13.12.2018 22:00:00 2,6 2,2 2,4 9,1 7 4 19 10 E 1014,5 2,3 0 0,0
13.12.2018 21:00:00 2,6 2,3 2,5 9,1 10 5 24 13 E 1013,6 2,5 0 0,0
13.12.2018 20:00:00 2,9 2,5 2,7 9,1 12 7 22 12 E 1012,6 2,2 0 0,0
13.12.2018 19:00:00 3,2 2,8 3,1 9,1 11 6 22 12 E 1011,6 1,9 0 0,0
13.12.2018 18:00:00 3,7 3,1 3,5 9,2 8 5 23 12 E 1010,9 1,6 0 0,2
13.12.2018 17:00:00 4,2 3,5 3,9 9,2 12 6 19 10 ESE 1010,1 2,1 0 0,0
13.12.2018 16:00:00 4,5 3,8 4,2 9,2 8 4 22 12 ESE 1008,8 9 0 0,0
13.12.2018 15:00:00 4,5 3,6 4,3 9,2 11 6 21 12 E 1007,9 9 0 0,0
13.12.2018 14:00:00 4,6 3,6 4,7 9,3 11 6 30 16 ESE 1007,6 16 0 0,0
13.12.2018 13:00:00 4,7 3,7 4,4 9,3 16 9 28 15 E 1006,9 14 0 0,0
13.12.2018 12:00:00 4,5 3,5 4,1 9,4 13 7 30 16 E 1006,8 14 0 0,0
13.12.2018 11:00:00 4,3 3,4 3,8 9,4 15 8 31 17 E 1006,3 12 0 0,0
13.12.2018 10:00:00 4,0 3,3 3,7 9,5 19 11 34 19 E 1005,9 12 0 0,0
13.12.2018 09:00:00 4,3 3,7 4,0 9,5 18 10 35 19 E 1005,5 12 0 0,0
13.12.2018 08:00:00 4,2 3,8 4,0 9,5 18 10 39 21 ESE 1005,2 9 0 0,2
13.12.2018 07:00:00 4,4 4,1 4,1 9,6 21 11 41 22 ESE 1005,2 5 0 0,0
13.12.2018 06:00:00 4,7 4,4 4,5 9,6 22 12 41 22 ESE 1005,5 3,2 0 0,2
13.12.2018 05:00:00 4,7 4,3 4,5 9,7 21 11 48 26 ESE 1006,4 4,0 0 0,0
13.12.2018 04:00:00 4,9 4,5 4,7 9,7 24 13 47 25 ESE 1006,4 3,4 0 0,0
13.12.2018 03:00:00 5,1 4,7 4,9 9,7 21 11 40 21 ESE 1007,4 3,8 0 0,0
13.12.2018 02:00:00 5,2 4,8 5,0 9,8 21 11 40 21 ESE 1007,8 3,4 0 0,0
13.12.2018 01:00:00 5,2 4,9 4,8 9,8 21 11 36 19 ESE 1008,8 3,1 0 0,0
13.12.2018 00:00:00 5,1 4,8 4,8 9,8 18 10 34 19 ESE 1009,8 3,2 0 0,0
12.12.2018 23:00:00 5,4 5,1 5,2 9,8 17 9 32 17 ESE 1010,9 3,5 0 0,0
12.12.2018 22:00:00 5,9 5,6 5,6 9,8 17 9 35 19 ESE 1011,4 3,8 0 0,0
12.12.2018 21:00:00 6,5 6,2 6,3 9,9 17 9 29 16 ESE 1012,9 5 0 0,0
12.12.2018 20:00:00 6,5 6,4 6,2 9,8 15 8 29 16 ESE 1014,0 6 0 0,0
12.12.2018 19:00:00 6,3 6,2 6,2 9,8 16 9 35 19 ESE 1014,1 4,5 0 0,0
12.12.2018 18:00:00 6,6 6,5 6,5 9,8 19 10 32 17 ESE 1015,0 3,9 0 0,0
12.12.2018 17:00:00 6,9 6,8 6,8 9,8 14 8 27 15 ESE 1015,5 3,2 0 0,0
12.12.2018 16:00:00 7,5 7,4 7,6 9,8 14 7 26 14 ESE 1016,0 4,3 0 0,0
12.12.2018 15:00:00 7,6 7,5 7,3 9,8 9 5 16 8 SE 1016,8 1,9 0 0,0
12.12.2018 14:00:00 7,1 7,0 6,8 9,8 5 3 13 7 ESE 1017,6 0,2 0 0,0
12.12.2018 13:00:00 6,6 6,5 6,4 9,8 9 5 12 7 SE 1018,6 0,2 0 0,0
12.12.2018 12:00:00 6,4 6,3 6,5 9,8 5 3 12 7 ESE 1019,5 0,1 0 0,0
12.12.2018 11:00:00 6,0 5,9 6,0 9,8 5 3 9 5 SSE 1019,8 0,1 0 0,0
12.12.2018 10:00:00 6,0 5,7 6,0 9,8 2 1 8 4 SSE 1019,6 0,1 0 0,0
12.12.2018 09:00:00 6,5 6,2 6,4 9,8 0 0 9 5 N 1019,8 0,2 0 0,0
12.12.2018 08:00:00 7,1 6,8 7,0 9,8 5 3 12 7 SSE 1019,5 0,5 0 0,0
12.12.2018 07:00:00 7,7 7,4 6,7 9,8 0 0 10 5 N 1019,2 6 0 0,0
12.12.2018 06:00:00 7,9 7,5 7,2 9,8 5 3 11 6 S 1019,1 14 0 0,2
12.12.2018 05:00:00 7,5 7,1 5,9 9,8 0 0 5 3 N 1019,1 17 0 0,6
12.12.2018 04:00:00 7,8 7,2 7,5 9,8 0 0 5 3 N 1019,2 15 0 0,0
12.12.2018 03:00:00 7,9 7,3 6,9 9,8 0 0 8 5 N 1018,6 20 0 0,0
12.12.2018 02:00:00 8,2 7,4 7,7 9,8 4 2 13 7 E 1018,4 17 0 0,6
12.12.2018 01:00:00 8,4 7,2 7,8 9,8 0 0 19 11 N 1019,1 8 0 1,0
12.12.2018 00:00:00 9,1 7,5 8,2 9,7 17 9 29 16 NNW 1018,8 14 0 2,8
11.12.2018 23:00:00 10,3 8,4 9,4 9,7 15 8 31 17 SSE 1018,6 20 0 0,2
11.12.2018 22:00:00 10,6 7,7 10,2 9,7 20 11 33 18 S 1018,6 19 0 0,0
11.12.2018 21:00:00 10,4 7,6 10,0 9,7 18 10 34 18 S 1019,4 20 0 0,0
11.12.2018 20:00:00 10,3 7,0 9,9 9,7 19 10 34 18 S 1019,8 37 0 0,0
11.12.2018 19:00:00 10,1 6,8 9,6 9,7 17 9 37 20 S 1020,1 20 0 0,0
11.12.2018 18:00:00 9,9 7,0 9,6 9,7 17 9 35 19 SSE 1020,4 34 0 0,0
11.12.2018 17:00:00 10,0 6,7 9,9 9,6 19 10 32 18 SSE 1020,8 20 0 0,0
11.12.2018 16:00:00 10,1 6,8 10,1 9,6 24 13 40 22 SSE 1020,9 20 1 0,0
11.12.2018 15:00:00 10,4 6,7 10,6 9,6 22 12 44 24 SSE 1021,6 41 12 0,4
11.12.2018 14:00:00 11,2 7,9 10,6 9,6 23 13 40 22 S 1022,0 43 14 0,0
11.12.2018 13:00:00 10,2 8,5 8,8 9,6 22 12 38 20 SSE 1022,6 20 10 0,0
11.12.2018 12:00:00 8,4 8,1 7,7 9,7 12 6 36 19 SE 1023,5 12 0 0,0
11.12.2018 11:00:00 7,6 7,3 6,7 9,7 17 9 32 17 SE 1024,0 15 0 0,0
11.12.2018 10:00:00 6,6 6,5 6,0 9,7 13 7 24 13 ESE 1024,2 11 18 0,0
11.12.2018 09:00:00 6,1 6,0 5,4 9,7 9 5 18 10 ESE 1024,4 11 0 0,0
11.12.2018 08:00:00 5,7 5,6 5,1 9,8 8 4 14 8 ESE 1024,6 4,9 0 0,0
11.12.2018 07:00:00 5,9 5,8 3,3 9,9 6 3 10 5 E 1024,6 3,3 0 0,0
11.12.2018 06:00:00 4,9 4,6 2,1 9,9 3 2 7 4 ENE 1025,1 2,9 0 0,0
11.12.2018 05:00:00 4,3 4,0 2,0 9,9 3 2 8 5 NE 1025,8 2,1 0 0,0
11.12.2018 04:00:00 3,8 3,5 1,8 10,0 5 3 9 5 NE 1026,7 2,3 0 0,0
11.12.2018 03:00:00 5,5 5,2 4,0 10,0 4 2 9 5 ENE 1027,5 5 0 0,0
11.12.2018 02:00:00 6,1 5,8 4,1 10,1 5 3 9 5 NE 1028,3 7 0 0,0
11.12.2018 01:00:00 5,5 5,2 4,1 10,1 0 0 7 4 N 1028,9 6 0 0,0
11.12.2018 00:00:00 6,2 5,9 5,8 10,2 5 3 9 5 ENE 1029,2 5 0 0,0
10.12.2018 23:00:00 6,0 5,6 3,1 10,2 4 2 6 3 NNE 1029,6 4,6 0 0,0
10.12.2018 22:00:00 6,2 5,8 2,5 10,3 0 0 0 0 N 1029,7 5 0 0,0
10.12.2018 21:00:00 6,6 6,0 2,8 10,3 0 0 14 8 N 1030,1 9 0 0,0
10.12.2018 20:00:00 6,3 5,3 2,6 10,3 0 0 4 2 N 1030,3 10 0 0,0
10.12.2018 19:00:00 7,0 5,5 2,5 10,3 0 0 0 0 N 1030,7 14 0 0,0
10.12.2018 18:00:00 7,8 5,8 5,9 10,3 0 0 6 3 N 1030,8 17 0 0,0
10.12.2018 17:00:00 8,9 5,8 7,6 10,2 4 2 8 4 WNW 1031,2 20 0 0,0
10.12.2018 16:00:00 10,1 6,1 9,7 10,1 0 0 8 4 N 1031,4 30 0 0,0
10.12.2018 15:00:00 11,0 6,7 11,9 10,1 2 1 9 5 N 1031,4 6 6 0,0
10.12.2018 14:00:00 11,8 7,3 11,3 10,1 2 1 8 4 SSE 1031,7 14 23 0,0
10.12.2018 13:00:00 12,3 7,8 14,3 10,1 0 0 0 0 N 1032,4 19 60 0,0
10.12.2018 12:00:00 10,1 7,9 8,7 10,2 0 0 6 3 N 1032,8 16 49 0,0
10.12.2018 11:00:00 8,6 7,5 8,3 10,3 0 0 6 3 N 1032,7 9 11 0,0
10.12.2018 10:00:00 7,3 6,2 3,5 10,3 2 1 10 5 NW 1032,6 17 32 0,0
10.12.2018 09:00:00 5,8 4,0 3,7 10,4 8 5 13 7 WNW 1032,2 18 0 0,0
10.12.2018 08:00:00 6,7 5,3 3,7 10,5 9 5 11 6 WNW 1032,3 20 0 0,0
10.12.2018 07:00:00 5,6 4,2 3,7 10,5 8 4 10 6 WNW 1032,1 19 0 0,0
10.12.2018 06:00:00 6,2 4,8 4,0 10,6 11 6 16 9 NW 1031,9 19 0 0,0
10.12.2018 05:00:00 5,5 4,1 3,7 10,6 9 5 11 6 WNW 1031,9 17 0 0,0
10.12.2018 04:00:00 6,5 4,8 5,0 10,7 10 5 14 7 WNW 1032,2 18 0 0,0
10.12.2018 03:00:00 6,5 4,7 4,5 10,7 6 3 14 8 WNW 1031,9 17 0 0,0
10.12.2018 02:00:00 7,4 5,4 5,2 10,8 8 4 13 7 W 1031,9 18 0 0,0
10.12.2018 01:00:00 7,0 4,6 4,9 10,8 8 4 16 8 WSW 1031,8 17 0 0,0
10.12.2018 00:00:00 8,3 4,7 7,3 10,8 11 6 28 15 NW 1031,3 18 0 0,0
09.12.2018 23:00:00 9,0 5,9 7,6 10,9 17 9 27 14 WNW 1031,0 17 0 0,0
09.12.2018 22:00:00 9,5 5,7 8,3 10,9 18 10 26 14 NW 1030,6 17 0 0,0
09.12.2018 21:00:00 9,1 5,5 8,3 10,9 13 7 34 19 WNW 1030,0 17 0 0,0
09.12.2018 20:00:00 9,8 6,0 9,1 10,9 20 11 41 22 NW 1029,1 16 0 0,0
09.12.2018 19:00:00 9,9 5,7 9,4 10,9 23 12 47 25 NW 1028,4 17 0 0,0
09.12.2018 18:00:00 10,2 5,8 9,6 10,9 29 16 47 25 NW 1027,5 17 0 0,0
09.12.2018 17:00:00 10,7 6,1 10,4 10,9 35 19 63 34 NW 1026,7 18 51 0,0
09.12.2018 16:00:00 11,5 6,2 11,0 10,9 43 23 63 34 NW 1025,7 17 46 0,0
09.12.2018 15:00:00 11,6 6,3 11,6 10,9 41 22 70 38 NW 1024,7 16 45 0,0
09.12.2018 14:00:00 12,3 6,8 11,3 10,9 45 24 72 39 NW 1024,2 16 44 0,0
09.12.2018 13:00:00 12,0 6,7 11,9 10,9 43 23 69 37 WNW 1023,9 16 24 0,0
09.12.2018 12:00:00 11,9 7,2 11,1 10,9 38 20 78 42 NW 1023,3 17 31 0,0
09.12.2018 11:00:00 11,5 8,5 9,6 11,0 37 20 65 35 WNW 1022,3 12 6 0,0
09.12.2018 10:00:00 11,4 7,3 10,5 11,0 34 18 68 37 WNW 1021,4 13 6 0,0
09.12.2018 09:00:00 11,0 7,1 9,1 11,0 38 21 70 38 WNW 1020,6 11 0 0,0
09.12.2018 08:00:00 10,9 5,8 9,9 11,0 33 18 69 37 WNW 1019,9 13 0 0,0
09.12.2018 07:00:00 10,7 5,7 9,5 11,1 34 18 60 32 WNW 1019,3 13 0 0,0

tt = temperature
td = dewpoint
tt 5cm = temperature 5cm
tt -20cm = temperature -20cm
ff = wind speed
fx = gusts
dd = wind direction
ppp = reduced air pressure
vv = visibility
sd = sunshine duration
rr = precipitation

Next stations